Weather History for Phoenix, AZ

Change the Weather History Date:

Tuesday, December 3, 2013

  Actual Average Record
Temperature  
Mean Temperature 62 °F 57 °F  
Max Temperature 74 °F 68 °F 81 °F (1940)
Min Temperature 50 °F 47 °F 30 °F (1934)
Degree Days  
Heating Degree Days 3 8  
Month to date heating degree days 12 23  
Since 1 July heating degree days 67 126  
Cooling Degree Days 0 0  
Month to date cooling degree days 0 0  
Year to date cooling degree days 5023 4606  
Growing Degree Days 12 (Base 50)    
Moisture  
Dew Point 40 °F    
Average Humidity 50    
Maximum Humidity 77    
Minimum Humidity 23    
Precipitation  
Precipitation 0.00 in 0.03 in 0.69 in (1908)
Month to date precipitation 0.00 0.08  
Year to date precipitation 8.03 7.23  
Snow  
Snow 0.00 in - - ()
Month to date snowfall 0.0  
Year to date snowfall 0.0  
Since 1 July snowfall 0.0  
Snow Depth 0.00 in    
Sea Level Pressure  
Sea Level Pressure 29.74 in    
Wind  
Wind Speed 6 mph (ESE)    
Max Wind Speed 14 mph    
Max Gust Speed 17 mph    
Visibility 10 miles    
Events      
T = Trace of Precipitation, MM = Missing Value Source: NWS Daily Summary

Daily Weather History Graph

Daily Weather History Graph

Search for Another Location

Airport:

Trip Planner

Search our weather history database for the weather conditions in past years. The results will help you decide how hot, cold, wet, or windy it might be!

Date:

Astronomy

Dec. 03, 2013 Rise Set
Actual Time 7:15 AM MST 5:19 PM MST
Civil Twilight 6:48 AM MST 5:47 PM MST
Nautical Twilight 6:17 AM MST 6:17 PM MST
Astronomical Twilight 5:47 AM MST 6:48 PM MST
Moon 7:50 AM MST (12/3) 6:26 PM MST (12/3)
Length of Visible Light 10h 58m
Length of Day
10h 04m
New Moon, 1% of the Moon is Illuminated
Dec 3
New Moon
Dec 9
First Quarter
Dec 17
Full
Dec 25
Last Quarter
Jan 1
New

Hourly Weather History & Observations

Time (MST) Temp. Dew Point Humidity Pressure Visibility Wind Dir Wind Speed Gust Speed Precip Events Conditions
12:51 AM 55.0 °F 44.1 °F 67% 29.84 in 10.0 mi East 6.9 mph - N/A   Overcast
1:51 AM 54.0 °F 44.1 °F 69% 29.83 in 10.0 mi SE 4.6 mph - N/A   Overcast
2:51 AM 54.0 °F 44.1 °F 69% 29.82 in 10.0 mi ESE 5.8 mph - N/A   Mostly Cloudy
3:51 AM 52.0 °F 44.1 °F 74% 29.82 in 10.0 mi East 5.8 mph - N/A   Mostly Cloudy
4:51 AM 52.0 °F 43.0 °F 71% 29.81 in 10.0 mi East 8.1 mph - N/A   Mostly Cloudy
5:51 AM 51.1 °F 43.0 °F 74% 29.80 in 10.0 mi East 5.8 mph - N/A   Mostly Cloudy
6:51 AM 50.0 °F 42.1 °F 74% 29.80 in 10.0 mi ESE 4.6 mph - N/A   Mostly Cloudy
7:51 AM 51.1 °F 42.1 °F 71% 29.81 in 10.0 mi East 9.2 mph - N/A   Mostly Cloudy
8:51 AM 54.0 °F 43.0 °F 66% 29.82 in 10.0 mi East 6.9 mph - N/A   Mostly Cloudy
9:51 AM 59.0 °F 39.2 °F 48% 29.85 in 10.0 mi East 6.9 mph - N/A   Mostly Cloudy
10:51 AM 63.0 °F 43.0 °F 48% 29.81 in 10.0 mi ESE 9.2 mph - N/A   Mostly Cloudy
11:51 AM 68.0 °F 39.9 °F 36% 29.76 in 10.0 mi SSE 8.1 mph - N/A   Mostly Cloudy
12:51 PM 70.0 °F 39.0 °F 32% 29.73 in 10.0 mi South 8.1 mph - N/A   Mostly Cloudy
1:51 PM 71.1 °F 36.0 °F 28% 29.70 in 10.0 mi South 5.8 mph - N/A   Mostly Cloudy
2:51 PM 73.0 °F 36.0 °F 26% 29.68 in 10.0 mi South 5.8 mph - N/A   Mostly Cloudy
3:51 PM 73.0 °F 34.0 °F 24% 29.65 in 10.0 mi South 3.5 mph - N/A   Mostly Cloudy
4:51 PM 72.0 °F 36.0 °F 27% 29.64 in 10.0 mi ESE 4.6 mph - N/A   Mostly Cloudy
5:51 PM 70.0 °F 36.0 °F 29% 29.63 in 10.0 mi East 4.6 mph - N/A   Mostly Cloudy
6:51 PM 64.9 °F 37.9 °F 37% 29.63 in 10.0 mi Calm Calm - N/A   Scattered Clouds
7:51 PM 63.0 °F 37.9 °F 40% 29.64 in 10.0 mi Calm Calm - N/A   Scattered Clouds
8:51 PM 62.1 °F 39.0 °F 43% 29.65 in 10.0 mi Calm Calm - N/A   Overcast
9:51 PM 60.1 °F 41.0 °F 49% 29.67 in 10.0 mi East 6.9 mph - N/A   Mostly Cloudy
10:51 PM 63.0 °F 39.9 °F 43% 29.65 in 10.0 mi ESE 5.8 mph - N/A   Mostly Cloudy
11:51 PM 61.0 °F 41.0 °F 48% 29.65 in 10.0 mi ESE 6.9 mph - N/A   Overcast